Location: Byszew
(52.1813°N, 19.2693°E)
Time: 16:45:00
(UTC+00:00)

SPROUT - Pass Details

Date: 08 July 2022
Orbit: 588 x 598 km, 97.9° (Epoch: 09 August)

Event Time Altitude Azimuth Distance (km) Brightness Sun altitude
Exits shadow 22:23:49 12° 120° (ESE) 1,801 ? -15.2°
Maximum altitude 22:27:04 29° 64° (ENE) 1,111 ? -15.3°
Drops below altitude 10° 22:30:40 10° 4° (N) 1,935 ? -15.3°
Sets 22:33:03 0° 354° (N) 2,843 ? -15.4°
